Middleton, WI

10:08 PM CDT on June 28, 2017 (GMT -0500)
Middleton

Weather History for KC29 - December, 2012

Change the Weather History Date:

Wednesday, December 5, 2012

  Actual Average (KMSN) Record (KMSN)
Temperature  
Mean Temperature 28 °F -  
Max Temperature 36 °F 35 °F 64 °F (2001)
Min Temperature 21 °F 20 °F -15 °F (1871)
Degree Days  
Heating Degree Days 36    
Moisture  
Dew Point 18 °F    
Average Humidity 61    
Maximum Humidity 77    
Minimum Humidity 40    
Precipitation  
Precipitation 0.00 in - - ()
Sea Level Pressure  
Sea Level Pressure 30.32 in    
Wind  
Wind Speed 6 mph (ESE)    
Max Wind Speed 10 mph    
Max Gust Speed -    
Visibility 10 miles    
Events      
Averages and records for this station are not official NWS values.
T = Trace of Precipitation, MM = Missing Value Source: NWS Daily Summary

Daily Weather History Graph

Daily Weather History Graph

Search for Another Location

Airport or City:

Trip Planner

Search our weather history database for the weather conditions in past years. The results will help you decide how hot, cold, wet, or windy it might be!

Date:

Astronomy

Dec. 05, 2012 Rise Set
Actual Time 7:14 AM CST 4:23 PM CST
Civil Twilight 6:42 AM CST 4:55 PM CST
Nautical Twilight 6:06 AM CST 5:30 PM CST
Astronomical Twilight 5:32 AM CST 6:05 PM CST
Moon 11:20 PM CST (12/5) 11:31 AM CST (12/5)
Length of Visible Light 10h 12m
Length of Day
9h 08m
Waning Gibbous, 59% of the Moon is Illuminated
Dec 5
Waning Gibbous
Dec 6
Last Quarter
Dec 13
New
Dec 19
First Quarter
Dec 28
Full

Hourly Weather History & Observations

Time (CST) Temp. Windchill Dew Point Humidity Pressure Visibility Wind Dir Wind Speed Gust Speed Precip Events Conditions
12:15 AM 27.7 °F 20.4 °F 14.5 °F 58% 30.35 in 10.0 mi NNW 6.9 mph - N/A   Clear
12:35 AM 27.0 °F 23.0 °F 15.1 °F 61% 30.35 in 10.0 mi NNW 3.5 mph - N/A   Clear
12:55 AM 26.6 °F 20.0 °F 14.9 °F 61% 30.35 in 10.0 mi NW 5.8 mph - N/A   Clear
1:15 AM 26.4 °F 20.9 °F 14.9 °F 62% 30.37 in 10.0 mi NW 4.6 mph - N/A   Clear
1:55 AM 26.1 °F 20.5 °F 15.1 °F 63% 30.37 in 10.0 mi North 4.6 mph - N/A   Clear
2:15 AM 25.3 °F 19.7 °F 15.1 °F 65% 30.39 in 10.0 mi North 4.6 mph - N/A   Clear
2:35 AM 25.3 °F 18.5 °F 15.4 °F 66% 30.39 in 10.0 mi North 5.8 mph - N/A   Clear
2:55 AM 25.2 °F 20.9 °F 14.9 °F 65% 30.40 in 10.0 mi North 3.5 mph - N/A   Clear
3:15 AM 23.4 °F 17.4 °F 14.4 °F 68% 30.39 in 10.0 mi NNE 4.6 mph - N/A   Clear
3:35 AM 23.7 °F 14.0 °F 13.8 °F 66% 30.38 in 10.0 mi North 9.2 mph - N/A   Clear
3:55 AM 23.5 °F 16.4 °F 13.5 °F 65% 30.39 in 10.0 mi North 5.8 mph - N/A   Clear
4:15 AM 23.2 °F - 13.5 °F 66% 30.40 in 10.0 mi Calm Calm - N/A   Clear
4:35 AM 21.9 °F 15.7 °F 13.1 °F 69% 30.40 in 10.0 mi NNE 4.6 mph - N/A   Clear
4:55 AM 22.5 °F - 13.5 °F 68% 30.41 in 10.0 mi Calm Calm - N/A   Clear
5:15 AM 21.9 °F 17.2 °F 12.9 °F 68% 30.41 in 10.0 mi North 3.5 mph - N/A   Clear
5:55 AM 22.1 °F 14.7 °F 12.9 °F 68% 30.41 in 10.0 mi NNE 5.8 mph - N/A   Clear
6:15 AM 22.1 °F 17.4 °F 13.1 °F 68% 30.41 in 10.0 mi NNE 3.5 mph - N/A   Clear
6:35 AM 21.9 °F - 13.1 °F 69% 30.42 in 10.0 mi Calm Calm - N/A   Clear
6:55 AM 21.7 °F - 12.6 °F 68% 30.42 in 10.0 mi Calm Calm - N/A   Clear
8:55 AM 26.2 °F 17.8 °F 15.3 °F 63% 30.41 in 10.0 mi East 8.1 mph - N/A   Clear
9:15 AM 27.1 °F 18.9 °F 15.6 °F 62% 30.42 in 10.0 mi East 8.1 mph - N/A   Clear
9:35 AM 28.2 °F 23.1 °F 14.7 °F 57% 30.43 in 10.0 mi East 4.6 mph - N/A   Clear
9:55 AM 28.8 °F 21.7 °F 13.6 °F 53% 30.43 in 10.0 mi ENE 6.9 mph - N/A   Clear
10:15 AM 29.8 °F 24.9 °F 14.4 °F 53% 30.43 in 10.0 mi ESE 4.6 mph - N/A   Clear
10:35 AM 31.1 °F 25.4 °F 14.9 °F 51% 30.43 in 10.0 mi ESE 5.8 mph - N/A   Clear
10:55 AM 32.0 °F 24.8 °F 14.7 °F 49% 30.42 in 10.0 mi East 8.1 mph - N/A   Clear
11:15 AM 32.0 °F 24.8 °F 15.4 °F 51% 30.41 in 10.0 mi ESE 8.1 mph - N/A   Clear
11:35 AM 32.4 °F 25.3 °F 14.7 °F 48% 30.40 in 10.0 mi ESE 8.1 mph - N/A   Clear
11:55 AM 32.9 °F 27.5 °F 14.5 °F 47% 30.40 in 10.0 mi ESE 5.8 mph - N/A   Clear
12:15 PM 34.0 °F 28.0 °F 13.8 °F 44% 30.39 in 10.0 mi SE 6.9 mph - N/A   Clear
12:35 PM 34.9 °F 29.0 °F 13.8 °F 42% 30.37 in 10.0 mi SSE 6.9 mph - N/A   Clear
1:15 PM 34.7 °F 31.8 °F 13.6 °F 42% 30.35 in 10.0 mi SSE 3.5 mph - N/A   Clear
1:35 PM 36.3 °F 31.6 °F 13.8 °F 40% 30.35 in 10.0 mi SE 5.8 mph - N/A   Clear
1:55 PM 35.8 °F 29.4 °F 14.7 °F 42% 30.34 in 10.0 mi ESE 8.1 mph - N/A   Clear
2:15 PM 35.6 °F 29.2 °F 15.1 °F 43% 30.32 in 10.0 mi East 8.1 mph - N/A   Clear
2:35 PM 35.8 °F 29.4 °F 14.9 °F 43% 30.32 in 10.0 mi ESE 8.1 mph - N/A   Clear
2:55 PM 36.5 °F 29.7 °F 15.3 °F 42% 30.31 in 10.0 mi ESE 9.2 mph - N/A   Clear
3:15 PM 35.4 °F 27.8 °F 15.4 °F 44% 30.30 in 10.0 mi SE 10.4 mph - N/A   Clear
3:35 PM 34.5 °F 27.9 °F 16.5 °F 48% 30.31 in 10.0 mi ESE 8.1 mph - N/A   Clear
3:55 PM 33.6 °F 27.5 °F 16.7 °F 50% 30.31 in 10.0 mi SSE 6.9 mph - N/A   Clear
4:15 PM 32.7 °F 28.3 °F 17.2 °F 53% 30.31 in 10.0 mi SSE 4.6 mph - N/A   Clear
4:35 PM 32.0 °F 25.6 °F 18.0 °F 56% 30.30 in 10.0 mi SE 6.9 mph - N/A   Clear
4:55 PM 32.0 °F 25.6 °F 19.0 °F 59% 30.29 in 10.0 mi SE 6.9 mph - N/A   Clear
5:15 PM 32.2 °F 25.0 °F 19.8 °F 60% 30.28 in 10.0 mi SE 8.1 mph - N/A   Clear
5:35 PM 32.5 °F 26.2 °F 20.3 °F 61% 30.28 in 10.0 mi SE 6.9 mph - N/A   Clear
5:55 PM 32.7 °F 27.3 °F 21.0 °F 62% 30.28 in 10.0 mi SSE 5.8 mph - N/A   Clear
6:15 PM 32.0 °F 27.5 °F 21.2 °F 64% 30.27 in 10.0 mi SE 4.6 mph - N/A   Clear
6:35 PM 31.8 °F 26.2 °F 21.9 °F 67% 30.26 in 10.0 mi SE 5.8 mph - N/A   Clear
6:55 PM 32.2 °F 25.8 °F 22.6 °F 68% 30.25 in 10.0 mi SE 6.9 mph - N/A   Clear
7:15 PM 32.9 °F 25.9 °F 23.0 °F 67% 30.24 in 10.0 mi SE 8.1 mph - N/A   Clear
7:35 PM 32.9 °F 25.9 °F 23.4 °F 68% 30.23 in 10.0 mi SE 8.1 mph - N/A   Clear
7:55 PM 32.5 °F 24.2 °F 23.7 °F 70% 30.22 in 10.0 mi SE 10.4 mph - N/A   Clear
8:15 PM 32.7 °F 25.7 °F 24.4 °F 72% 30.22 in 10.0 mi SE 8.1 mph - N/A   Clear
8:35 PM 32.9 °F 25.9 °F 24.8 °F 72% 30.22 in 10.0 mi SSE 8.1 mph - N/A   Clear
8:55 PM 32.9 °F 25.9 °F 25.3 °F 74% 30.20 in 10.0 mi SSE 8.1 mph - N/A   Clear
9:15 PM 32.9 °F 25.3 °F 25.7 °F 75% 30.20 in 10.0 mi SSE 9.2 mph - N/A   Clear
9:35 PM 33.3 °F 26.4 °F 26.2 °F 75% 30.19 in 10.0 mi SSE 8.1 mph - N/A   Clear
9:55 PM 33.8 °F 27.0 °F 26.2 °F 74% 30.18 in 10.0 mi SE 8.1 mph - N/A   Scattered Clouds
10:15 PM 33.3 °F 27.1 °F 26.6 °F 77% 30.18 in 10.0 mi SSE 6.9 mph - N/A   Mostly Cloudy
10:35 PM 33.4 °F 26.6 °F 26.6 °F 76% 30.18 in 10.0 mi SSE 8.1 mph - N/A   Mostly Cloudy
10:55 PM 33.8 °F 27.7 °F 26.6 °F 75% 30.17 in 10.0 mi SSE 6.9 mph - N/A   Mostly Cloudy
11:15 PM 33.4 °F 27.3 °F 26.6 °F 76% 30.17 in 10.0 mi SSE 6.9 mph - N/A   Scattered Clouds
11:35 PM 33.8 °F 27.0 °F 27.0 °F 76% 30.17 in 10.0 mi South 8.1 mph - N/A   Scattered Clouds
11:55 PM 33.8 °F 26.4 °F 27.0 °F 76% 30.16 in 10.0 mi South 9.2 mph - N/A   Clear